TimeEST,TemperatureF,Dew PointF,Humidity,Sea Level PressureIn,VisibilityMPH,Wind Direction,Wind SpeedMPH,Gust SpeedMPH,PrecipitationIn,Events,Conditions,WindDirDegrees,DateUTC
12:15 AM,5.0,-5.8,61,30.14,10.0,Calm,Calm,-,N/A,,Overcast,0,2014-01-22 05:15:00
12:35 AM,5.0,-5.8,61,30.15,10.0,Calm,Calm,-,N/A,,Overcast,0,2014-01-22 05:35:00
12:54 AM,5.0,-5.8,61,30.14,10.0,Calm,Calm,-,N/A,,Overcast,0,2014-01-22 05:54:00
1:15 AM,5.0,-5.8,61,30.14,10.0,South,4.6,-,N/A,,Overcast,190,2014-01-22 06:15:00
1:35 AM,5.0,-5.8,61,30.13,10.0,South,3.5,-,N/A,,Overcast,190,2014-01-22 06:35:00
1:54 AM,5.0,-5.8,61,30.13,10.0,South,3.5,-,N/A,,Overcast,190,2014-01-22 06:54:00
2:15 AM,5.0,-5.8,61,30.12,10.0,South,3.5,-,N/A,,Overcast,180,2014-01-22 07:15:00
2:35 AM,5.0,-5.8,61,30.12,10.0,South,4.6,-,N/A,,Overcast,180,2014-01-22 07:35:00
2:54 AM,5.0,-5.8,61,30.12,10.0,South,6.9,-,N/A,,Overcast,190,2014-01-22 07:54:00
3:15 AM,5.0,-5.8,61,30.11,10.0,South,4.6,-,N/A,,Overcast,180,2014-01-22 08:15:00
3:35 AM,5.0,-5.8,61,30.10,10.0,South,6.9,-,N/A,,Overcast,180,2014-01-22 08:35:00
3:54 AM,5.0,-5.8,61,30.09,10.0,South,6.9,-,N/A,,Overcast,190,2014-01-22 08:54:00
4:15 AM,3.2,-5.8,66,30.08,10.0,South,6.9,-,N/A,,Overcast,190,2014-01-22 09:15:00
4:35 AM,5.0,-7.6,56,30.07,10.0,South,6.9,-,N/A,,Overcast,180,2014-01-22 09:35:00
4:54 AM,5.0,-7.6,56,30.08,10.0,SSW,5.8,-,N/A,,Overcast,210,2014-01-22 09:54:00
5:15 AM,5.0,-5.8,61,30.06,10.0,South,6.9,-,N/A,,Overcast,190,2014-01-22 10:15:00
5:35 AM,5.0,-5.8,61,30.06,10.0,SSW,8.1,-,N/A,,Overcast,200,2014-01-22 10:35:00
5:54 AM,3.2,-5.8,66,30.05,10.0,South,5.8,-,N/A,,Overcast,190,2014-01-22 10:54:00
6:15 AM,3.2,-4.0,72,30.05,10.0,South,5.8,-,N/A,,Overcast,190,2014-01-22 11:15:00
6:35 AM,3.2,-4.0,72,30.04,10.0,South,5.8,-,N/A,,Overcast,180,2014-01-22 11:35:00
6:54 AM,3.2,-2.2,78,30.04,10.0,South,5.8,-,N/A,,Overcast,180,2014-01-22 11:54:00
7:15 AM,3.2,-2.2,78,30.03,10.0,South,5.8,-,N/A,,Overcast,180,2014-01-22 12:15:00
7:35 AM,3.2,-2.2,78,30.03,10.0,South,8.1,-,N/A,,Overcast,180,2014-01-22 12:35:00
7:54 AM,3.2,-2.2,78,30.02,10.0,South,9.2,-,N/A,,Overcast,180,2014-01-22 12:54:00
8:15 AM,3.2,-2.2,78,30.02,10.0,South,6.9,-,N/A,,Overcast,180,2014-01-22 13:15:00
8:35 AM,3.2,-2.2,78,30.02,10.0,South,5.8,-,N/A,,Overcast,180,2014-01-22 13:35:00
8:55 AM,3.2,-2.2,78,30.02,10.0,South,5.8,-,N/A,,Overcast,180,2014-01-22 13:55:00
9:15 AM,5.0,-2.2,72,30.01,10.0,South,5.8,-,N/A,,Overcast,180,2014-01-22 14:15:00
9:35 AM,5.0,-2.2,72,30.01,10.0,South,9.2,-,N/A,,Overcast,180,2014-01-22 14:35:00
9:55 AM,6.8,-2.2,67,30.01,10.0,South,10.4,-,N/A,,Overcast,180,2014-01-22 14:55:00
10:15 AM,6.8,-0.4,72,30.01,7.0,South,10.4,-,N/A,Snow,Light Snow,190,2014-01-22 15:15:00
10:35 AM,6.8,-0.4,72,30.01,5.0,SSW,9.2,-,N/A,Snow,Light Snow,200,2014-01-22 15:35:00
10:55 AM,6.8,-0.4,72,30.01,2.5,South,11.5,-,N/A,Snow,Light Snow,190,2014-01-22 15:55:00
11:15 AM,6.8,-0.4,72,30.01,3.0,SSW,9.2,-,N/A,Snow,Light Snow,210,2014-01-22 16:15:00
11:35 AM,6.8,1.4,79,30.00,2.0,SSW,11.5,-,N/A,Snow,Light Snow,210,2014-01-22 16:35:00
11:55 AM,6.8,1.4,79,29.99,2.0,SSW,13.8,-,N/A,Snow,Light Snow,210,2014-01-22 16:55:00
12:15 PM,6.8,1.4,79,29.97,1.5,South,13.8,-,N/A,Snow,Light Snow,190,2014-01-22 17:15:00
12:35 PM,8.6,1.4,73,29.96,2.0,SSW,18.4,-,N/A,Snow,Light Snow,210,2014-01-22 17:35:00
12:55 PM,8.6,1.4,73,29.94,1.5,SSW,17.3,-,N/A,,Haze,200,2014-01-22 17:55:00
1:15 PM,8.6,1.4,73,29.92,2.5,SSW,16.1,21.9,N/A,,Haze,200,2014-01-22 18:15:00
1:34 PM,8.6,1.4,73,29.91,4.0,SSW,16.1,-,N/A,,Haze,200,2014-01-22 18:34:00
1:55 PM,8.6,1.4,73,29.89,7.0,SSW,16.1,-,N/A,,Mostly Cloudy,210,2014-01-22 18:55:00
2:14 PM,8.6,1.4,73,29.89,7.0,SSW,15.0,-,N/A,,Mostly Cloudy,200,2014-01-22 19:14:00
2:35 PM,8.6,-0.4,67,29.88,7.0,SSW,17.3,20.7,N/A,,Scattered Clouds,210,2014-01-22 19:35:00
2:55 PM,8.6,1.4,73,29.88,5.0,SSW,17.3,-,N/A,,Haze,200,2014-01-22 19:55:00
3:14 PM,10.4,1.4,67,29.88,7.0,SSW,13.8,-,N/A,Snow,Light Snow,200,2014-01-22 20:14:00
3:35 PM,10.4,3.2,73,29.88,2.5,SSW,15.0,-,N/A,Snow,Light Snow,200,2014-01-22 20:35:00
3:54 PM,8.6,3.2,79,29.88,1.8,SSW,13.8,-,N/A,Snow,Light Snow,200,2014-01-22 20:54:00
4:15 PM,10.4,3.2,73,29.89,1.5,SW,11.5,-,N/A,Snow,Light Snow,220,2014-01-22 21:15:00
4:35 PM,10.4,5.0,79,29.89,2.0,SW,15.0,-,N/A,Snow,Light Snow,220,2014-01-22 21:35:00
4:54 PM,10.4,5.0,79,29.89,2.0,SSW,12.7,-,N/A,Snow,Light Snow,210,2014-01-22 21:54:00
5:15 PM,10.4,6.8,85,29.89,1.8,SW,10.4,-,N/A,Snow,Light Snow,220,2014-01-22 22:15:00
5:35 PM,10.4,6.8,85,29.88,3.0,SSW,10.4,-,N/A,Snow,Light Snow,200,2014-01-22 22:35:00
5:54 PM,10.4,6.8,85,29.89,4.0,SSW,10.4,-,N/A,Snow,Light Snow,210,2014-01-22 22:54:00
6:15 PM,10.4,6.8,85,29.90,2.0,SW,11.5,-,N/A,Snow,Light Snow,220,2014-01-22 23:15:00
6:35 PM,8.6,6.8,92,29.90,2.5,SSW,9.2,-,N/A,Snow,Light Snow,210,2014-01-22 23:35:00
6:54 PM,10.4,6.8,85,29.90,2.5,SSW,8.1,-,N/A,Snow,Light Snow,210,2014-01-22 23:54:00
7:15 PM,10.4,6.8,85,29.90,3.0,SSW,9.2,-,N/A,Snow,Light Snow,210,2014-01-23 00:15:00
7:34 PM,10.4,6.8,85,29.90,4.0,SSW,8.1,-,N/A,Snow,Light Snow,210,2014-01-23 00:34:00
7:55 PM,10.4,6.8,85,29.89,3.0,SSW,8.1,-,N/A,Snow,Light Snow,200,2014-01-23 00:55:00
8:15 PM,10.4,6.8,85,29.89,2.5,SSW,6.9,-,N/A,Snow,Light Snow,200,2014-01-23 01:15:00
8:34 PM,10.4,6.8,85,29.89,2.5,SSW,8.1,-,N/A,Snow,Light Snow,200,2014-01-23 01:34:00
8:55 PM,10.4,6.8,85,29.90,2.0,SW,9.2,-,N/A,Snow,Light Snow,220,2014-01-23 01:55:00
9:15 PM,10.4,8.6,92,29.90,2.5,SW,6.9,-,N/A,Snow,Light Snow,230,2014-01-23 02:15:00
9:34 PM,10.4,8.6,92,29.90,2.5,WSW,8.1,-,N/A,Snow,Light Snow,250,2014-01-23 02:34:00
9:55 PM,10.4,8.6,92,29.91,2.5,West,6.9,-,N/A,Snow,Light Snow,260,2014-01-23 02:55:00
10:15 PM,10.4,8.6,92,29.91,3.0,West,12.7,16.1,N/A,Snow,Light Snow,280,2014-01-23 03:15:00
10:34 PM,10.4,6.8,85,29.93,4.0,WNW,15.0,21.9,N/A,,Overcast,290,2014-01-23 03:34:00
10:55 PM,10.4,6.8,85,29.93,7.0,WNW,12.7,21.9,N/A,,Overcast,300,2014-01-23 03:55:00
11:15 PM,10.4,5.0,79,29.94,10.0,WNW,13.8,18.4,N/A,,Overcast,290,2014-01-23 04:15:00
11:34 PM,10.4,3.2,73,29.95,7.0,WNW,10.4,-,N/A,,Overcast,290,2014-01-23 04:34:00
11:55 PM,8.6,3.2,79,29.96,7.0,West,10.4,-,N/A,,Overcast,270,2014-01-23 04:55:00